{"data":{"norad_id":59016,"epoch":"2026-05-25T04:19:07.832064Z","epoch_age_seconds":69674,"freshness":"FRESH","line1":"1 59016U 24036U   26145.17995176  .00000700  00000+0  34316-4 0  9996","line2":"2 59016  53.1612  57.2657 0000919  69.2459 290.8641 15.31705063127390","mean_motion":15.31705063,"eccentricity":9.19e-5,"inclination_deg":53.1612,"raan_deg":57.2657,"arg_perigee_deg":69.2459,"mean_anomaly_deg":290.8641,"bstar":3.4316e-5,"rev_number":12739,"period_min":94.012877203632,"perigee_km":470.09549231882,"apogee_km":471.35431313654,"semimajor_km":6848.8619027277,"source":"CELESTRAK","updated_at":"2026-05-25T13:38:18.821095Z"}}